DIAMOND GREEN (42785 NORAD) Tracking and Keplerian Element Data

This shows tracking and keplerian element data for the satellite.

Feedback or suggestion? Click here.




ElementValue
Catalog42785
NameDIAMOND GREEN
Epoch Orbit8251
Epoch Day352.40202516
Epoch Year2018
RAAN48.8405
Inclination97.3786
Eccentricity0.0013182
Argument of Perigee145.4287
Mean Anonmoly214.7809
Mean Motion15.21831148
Decay Rate8.52E-06
L11 42785U 17036W 18352.40202516 .00000852 00000-0 40474-4 0 9990
L22 42785 97.3786 48.8405 0013182 145.4287 214.7809 15.21831148 82514

Live tracking and technical data element details for DIAMOND GREEN (NORAD 42785). DIAMOND GREEN can be tracked NOW for your location showing map with azimuth and elevation plus other details from your city location.

Track the satellite on the map from your city or location and see movement details for azimuth, elevation, latitude, longitude, range, height, and movement on the map or in text.







IsCatalogInMostPopularTable: catalog: 42785, numindb: 115
Update: records affected: 1



GetName: 42785 DIAMOND GREEN

Hit Count: updated at: Wed, 19 Dec 2018 15:16:51 GMT